User: anonymous   Login
Location: *
(44.1392°N, 4.8079°E)
Time: 09:22:41
(UTC+00:00)
Language:

MOZ.5/SAFIR/RUBIN 5/SL-8 - Orbit

View from above orbital plane
View from above orbital plane
View from above satellite
View from above satellite

Ground track
Ground track

The orbit data is extracted from the following two-line orbital elements,

1 28898U 05043G   21265.60312425  .00000104  00000-0  31023-4 0  9994
2 28898  98.1350  28.9942 0019358 347.5457  12.5263 14.60545455470658
Epoch (UTC): 22 September 2021 14:28:29
Eccentricity: 0.0019358
inclination: 98.1350°
perigee height: 678 km
apogee height: 705 km
right ascension of ascending node: 28.9942°
argument of perigee: 347.5457°
revolutions per day: 14.60545455
mean anomaly at epoch: 12.5263°
orbit number at epoch: 47065

The dashed part of the orbit path shows where the satellite is in the earth's shadow,  

DLR